Whiteman AFB, MO

4:15 AM CST on November 22, 2017 (GMT -0600)
Whiteman Air Force Base

Weather History for KSZL - October, 2010

Change the Weather History Date:

Thursday, October 14, 2010

  Actual Average Record
Temperature  
Mean Temperature 56 °F -  
Max Temperature 73 °F 66 °F 86 °F (2017)
Min Temperature 38 °F 45 °F 33 °F (2006)
Degree Days  
Heating Degree Days 10    
Growing Degree Days 6 (Base 50)    
Moisture  
Dew Point 38 °F    
Average Humidity 55    
Maximum Humidity 88    
Minimum Humidity 24    
Precipitation  
Precipitation 0.00 in - - ()
Sea Level Pressure  
Sea Level Pressure 30.16 in    
Wind  
Wind Speed 5 mph (SW)    
Max Wind Speed 17 mph    
Max Gust Speed 20 mph    
Visibility 10 miles    
Events      
Averages and records for this station are not official NWS values.
T = Trace of Precipitation, MM = Missing Value Source: NWS Daily Summary

Daily Weather History Graph

Daily Weather History Graph

Search for Another Location

Airport or City:

Trip Planner

Search our weather history database for the weather conditions in past years. The results will help you decide how hot, cold, wet, or windy it might be!

Date:

Astronomy

Oct. 14, 2010 Rise Set
Actual Time 7:22 AM CDT 6:37 PM CDT
Civil Twilight 6:55 AM CDT 7:04 PM CDT
Nautical Twilight 6:24 AM CDT 7:34 PM CDT
Astronomical Twilight 5:54 AM CDT 8:05 PM CDT
Moon 2:20 PM CDT (10/14) No Moon Set
Length of Visible Light 12h 08m
Length of Day
11h 14m
Waxing Crescent, 48% of the Moon is Illuminated
Oct 14
Waxing Crescent
Oct 14
First Quarter
Oct 22
Full
Oct 30
Last Quarter
Nov 5
New

Hourly Weather History & Observations

Time (CDT) Temp. Windchill Dew Point Humidity Pressure Visibility Wind Dir Wind Speed Gust Speed Precip Events Conditions
12:55 AM 47.7 °F - 39.0 °F 72% 30.27 in 10.0 mi Calm Calm - N/A   Clear
1:46 AM 46.4 °F 45.2 °F 39.2 °F 76% 30.27 in 10.0 mi SW 3.5 mph - N/A   Light Drizzle
1:55 AM 46.4 °F 45.2 °F 37.9 °F 72% 30.27 in 10.0 mi SW 3.5 mph - 0.00 in   Clear
2:55 AM 43.9 °F - 37.6 °F 78% 30.27 in 10.0 mi Calm Calm - N/A   Clear
3:55 AM 44.8 °F - 37.6 °F 76% 30.25 in 10.0 mi Calm Calm - N/A   Clear
4:55 AM 42.6 °F - 36.9 °F 80% 30.25 in 10.0 mi Calm Calm - N/A   Clear
5:55 AM 43.0 °F 41.3 °F 35.2 °F 74% 30.25 in 10.0 mi SSW 3.5 mph - N/A   Clear
6:55 AM 41.2 °F 39.2 °F 35.6 °F 81% 30.26 in 10.0 mi SW 3.5 mph - N/A   Clear
7:55 AM 38.5 °F - 35.2 °F 88% 30.27 in 10.0 mi Calm Calm - N/A   Clear
8:55 AM 48.9 °F - 39.2 °F 69% 30.27 in 10.0 mi WSW 3.5 mph - N/A   Clear
9:55 AM 56.1 °F - 39.9 °F 55% 30.26 in 10.0 mi WSW 3.5 mph - N/A   Clear
10:55 AM 64.2 °F - 35.1 °F 34% 30.25 in 10.0 mi WSW 9.2 mph - N/A   Clear
11:55 AM 67.8 °F - 34.7 °F 29% 30.22 in 10.0 mi WSW 11.5 mph - N/A   Clear
12:55 PM 70.2 °F - 32.4 °F 25% 30.18 in 10.0 mi WSW 17.3 mph - N/A   Clear
1:55 PM 71.8 °F - 33.8 °F 25% 30.14 in 10.0 mi SW 13.8 mph - N/A   Clear
2:55 PM 73.0 °F - 33.6 °F 24% 30.09 in 10.0 mi WSW 15.0 mph - N/A   Clear
3:55 PM 73.9 °F - 34.3 °F 24% 30.06 in 10.0 mi SW 12.7 mph - N/A   Clear
4:55 PM 73.6 °F - 36.7 °F 26% 30.03 in 10.0 mi SW 13.8 mph - N/A   Clear
5:55 PM 71.4 °F - 38.7 °F 30% 30.02 in 10.0 mi SW 10.4 mph 19.6 mph N/A   Clear
6:55 PM 64.9 °F - 41.7 °F 43% 30.01 in 10.0 mi SW 9.2 mph - N/A   Clear
7:55 PM 56.1 °F - 43.0 °F 61% 30.00 in 10.0 mi SSW 9.2 mph - N/A   Clear
8:55 PM 61.7 °F - 43.0 °F 50% 29.99 in 10.0 mi SW 12.7 mph - N/A   Clear
9:55 PM 59.9 °F - 43.0 °F 54% 30.00 in 10.0 mi West 5.8 mph - N/A   Clear
10:55 PM 55.9 °F - 42.8 °F 61% 30.01 in 10.0 mi WSW 6.9 mph - N/A   Clear
11:55 PM 54.3 °F - 43.0 °F 66% 30.02 in 10.0 mi West 5.8 mph - N/A   Clear